{"data":{"norad_id":32253,"intl_designator":"2007-044B","name":"INTELSAT 11 (IS-11)","alt_names":[],"object_type":"PAYLOAD","status":"ACTIVE","operator":null,"country":"ITSO","launch_date":"2007-10-05","launch_site_code":"FRGUI","launch_vehicle":null,"mission":null,"orbit_class":"UNKNOWN","rcs_meters":23.7915,"size_class":null,"mass_kg":null,"dimensions":null,"purposes":["comms"],"wikipedia_slug":null,"has_3d_model":false,"image_url":null,"decayed_at":null,"tle_current":{"epoch":"2026-05-25T03:10:45.628320Z","epoch_age_seconds":63274,"freshness":"FRESH","line1":"1 32253U 07044B   26145.13247255  .00000068  00000+0  00000+0 0  9999","line2":"2 32253   3.5078  78.9393 0000764  83.1829 355.3828  0.99048898 68224","mean_motion":0.99048898,"eccentricity":7.64e-5,"inclination_deg":3.5078,"raan_deg":78.9393,"arg_perigee_deg":83.1829,"mean_anomaly_deg":355.3828,"bstar":0,"rev_number":6822,"period_min":1453.8273813001,"perigee_km":36129.689041616,"apogee_km":36136.184733706,"semimajor_km":42511.073887661,"source":"CELESTRAK","updated_at":"2026-05-25T13:38:14.326140Z"}}}